Location: Stuttgart
(48.8069°N, 9.1544°E)
Time: 06:40:47
(UTC+01:00)

ISS - Pass Details

Date: 17 November 2017
Orbit: 402 x 407 km, 51.6° (Epoch: 24 November)

Event Time Altitude Azimuth Distance (km) Brightness Sun altitude
Exits shadow 04:48:19 13° 134° (SE) 1,276 -0.8 -27.3°
Drops below altitude 10° 04:48:45 10° 132° (SE) 1,451 -0.5 -27.2°
Sets 04:50:51 0° 127° (SE) 2,307 0.7 -26.9°
